This is the latest recevied weather packets stored in our database for station/object W5CDN. If no packets are shown the sender has not sent any weather packets the latest 10 day(s).
| Time | Temp. | Humidity | Pressure | Rain* | Wind** | Luminosity | Snow |
|---|---|---|---|---|---|---|---|
| 1788206336 | 37.78° C | 39% | 1014.1 hPa | 0 mm | - | - | - |
| 1788206036 | 36.67° C | 39% | 1014.4 hPa | 0 mm | - | - | - |
| 1788205736 | 37.78° C | 38% | 1014.3 hPa | 0 mm | - | - | - |
| 1788205436 | 37.22° C | 39% | 1014.3 hPa | 0 mm | - | - | - |
| 1788205136 | 37.22° C | 40% | 1014.5 hPa | 0 mm | - | - | - |
| 1788204836 | 36.67° C | 42% | 1014.4 hPa | 0 mm | - | - | - |
| 1788204536 | 36.11° C | 43% | 1014.5 hPa | 0 mm | - | - | - |
| 1788204236 | 36.11° C | 43% | 1014.5 hPa | 0 mm | - | - | - |
| 1788203936 | 36.11° C | 44% | 1014.7 hPa | 0 mm | - | - | - |
| 1788203636 | 36.67° C | 44% | 1014.9 hPa | 0 mm | - | - | - |
| 1788203336 | 36.11° C | 44% | 1014.7 hPa | 0 mm | - | - | - |
| 1788203036 | 36.11° C | 44% | 1014.8 hPa | 0 mm | - | - | - |
| 1788202736 | 35° C | 46% | 1015.2 hPa | 0 mm | - | - | - |
| 1788202436 | 34.44° C | 47% | 1015.2 hPa | 0 mm | - | - | - |
| 1788202136 | 35° C | 47% | 1015.1 hPa | 0 mm | - | - | - |
| 1788201836 | 35.56° C | 46% | 1015.2 hPa | 0 mm | - | - | - |
| 1788201536 | 34.44° C | 47% | 1015.3 hPa | 0 mm | - | - | - |
| 1788201236 | 34.44° C | 47% | 1015.3 hPa | 0 mm | - | - | - |
| 1788200936 | 35.56° C | 46% | 1015.5 hPa | 0 mm | - | - | - |
| 1788200636 | 35.56° C | 45% | 1015.4 hPa | 0 mm | - | - | - |
| 1788200336 | 35.56° C | 46% | 1015.1 hPa | 0 mm | - | - | - |
| 1788200036 | 35° C | 46% | 1015.6 hPa | 0 mm | - | - | - |
| 1788199736 | 33.89° C | 47% | 1015.6 hPa | 0 mm | - | - | - |
| 1788199436 | 33.89° C | 50% | 1015.7 hPa | 0 mm | - | - | - |
| 1788199136 | 34.44° C | 49% | 1015.6 hPa | 0 mm | - | - | - |
* Rain latest hour (hover to see other rain measurements)
** Current wind speed in m/s (hover to see current wind gust speed)